TimeCST,TemperatureF,Dew PointF,Humidity,Sea Level PressureIn,VisibilityMPH,Wind Direction,Wind SpeedMPH,Gust SpeedMPH,PrecipitationIn,Events,Conditions,WindDirDegrees,DateUTC
12:15 AM,26.6,19.4,74,30.33,10.0,Calm,Calm,-,N/A,,Clear,0,2013-02-21 06:15:00
12:35 AM,24.8,19.4,80,30.32,10.0,NNE,3.5,-,N/A,,Clear,30,2013-02-21 06:35:00
12:55 AM,24.8,19.4,80,30.32,10.0,Calm,Calm,-,N/A,,Clear,0,2013-02-21 06:55:00
1:15 AM,24.8,19.4,80,30.33,10.0,NNE,3.5,-,N/A,,Clear,20,2013-02-21 07:15:00
1:35 AM,24.8,19.4,80,30.32,10.0,NNE,5.8,-,N/A,,Clear,30,2013-02-21 07:35:00
1:55 AM,24.8,19.4,80,30.32,10.0,NE,5.8,-,N/A,,Clear,40,2013-02-21 07:55:00
2:15 AM,24.8,19.4,80,30.31,10.0,NE,5.8,-,N/A,,Clear,40,2013-02-21 08:15:00
2:35 AM,24.8,19.4,80,30.32,10.0,NE,4.6,-,N/A,,Clear,40,2013-02-21 08:35:00
2:55 AM,24.8,19.4,80,30.32,10.0,NNE,4.6,-,N/A,,Clear,30,2013-02-21 08:55:00
3:15 AM,23.0,19.4,86,30.31,10.0,NE,5.8,-,N/A,,Clear,40,2013-02-21 09:15:00
3:35 AM,24.8,19.4,80,30.31,10.0,NE,8.1,-,N/A,,Clear,40,2013-02-21 09:35:00
3:55 AM,23.0,19.4,86,30.31,10.0,ENE,4.6,-,N/A,,Clear,60,2013-02-21 09:55:00
4:15 AM,23.0,19.4,86,30.31,10.0,NE,6.9,-,N/A,,Clear,50,2013-02-21 10:15:00
4:35 AM,23.0,19.4,86,30.31,10.0,NE,6.9,-,N/A,,Clear,50,2013-02-21 10:35:00
4:55 AM,24.8,19.4,80,30.30,10.0,NE,6.9,-,N/A,,Clear,50,2013-02-21 10:55:00
5:15 AM,23.0,19.4,86,30.31,10.0,ENE,9.2,-,N/A,,Clear,70,2013-02-21 11:15:00
5:55 AM,23.0,19.4,86,30.31,10.0,East,9.2,-,N/A,,Clear,80,2013-02-21 11:55:00
6:15 AM,23.0,19.4,86,30.31,10.0,ENE,9.2,-,N/A,,Clear,70,2013-02-21 12:15:00
6:35 AM,23.0,19.4,86,30.31,10.0,East,8.1,-,N/A,,Clear,80,2013-02-21 12:35:00
6:55 AM,24.8,19.4,80,30.31,10.0,East,9.2,-,N/A,,Clear,80,2013-02-21 12:55:00
7:15 AM,24.8,19.4,80,30.29,10.0,ENE,13.8,17.3,N/A,,Clear,70,2013-02-21 13:15:00
7:35 AM,26.6,19.4,74,30.29,10.0,East,16.1,-,N/A,,Clear,90,2013-02-21 13:35:00
7:55 AM,26.6,19.4,74,30.29,10.0,East,15.0,-,N/A,,Clear,80,2013-02-21 13:55:00
8:15 AM,26.6,19.4,74,30.32,10.0,East,12.7,25.3,N/A,,Clear,80,2013-02-21 14:15:00
8:35 AM,28.4,21.2,74,30.30,10.0,East,15.0,-,N/A,,Clear,80,2013-02-21 14:35:00
8:55 AM,28.4,19.4,69,30.29,10.0,East,18.4,-,N/A,,Clear,80,2013-02-21 14:55:00
9:15 AM,28.4,19.4,69,30.28,10.0,ENE,15.0,-,N/A,,Clear,70,2013-02-21 15:15:00
9:35 AM,30.2,21.2,69,30.28,10.0,ENE,15.0,-,N/A,,Clear,70,2013-02-21 15:35:00
9:55 AM,30.2,21.2,69,30.28,10.0,East,12.7,-,N/A,,Clear,90,2013-02-21 15:55:00
10:15 AM,32.0,21.2,64,30.27,10.0,East,12.7,-,N/A,,Clear,80,2013-02-21 16:15:00
10:35 AM,32.0,21.2,64,30.26,10.0,East,16.1,-,N/A,,Clear,80,2013-02-21 16:35:00
10:55 AM,32.0,21.2,64,30.23,10.0,East,17.3,-,N/A,,Clear,80,2013-02-21 16:55:00
11:15 AM,32.0,21.2,64,30.22,10.0,East,12.7,-,N/A,,Clear,80,2013-02-21 17:15:00
11:35 AM,32.0,21.2,64,30.21,10.0,ENE,13.8,-,N/A,,Scattered Clouds,70,2013-02-21 17:35:00
12:15 PM,32.0,23.0,69,30.13,10.0,East,18.4,-,N/A,,Overcast,90,2013-02-21 18:15:00
12:35 PM,32.0,23.0,69,30.10,10.0,East,20.7,26.5,N/A,,Mostly Cloudy,90,2013-02-21 18:35:00
12:55 PM,33.8,23.0,65,30.10,10.0,East,17.3,-,N/A,,Mostly Cloudy,90,2013-02-21 18:55:00
1:15 PM,32.0,23.0,69,30.08,10.0,East,16.1,21.9,N/A,,Mostly Cloudy,80,2013-02-21 19:15:00
1:35 PM,32.0,23.0,69,30.07,10.0,ENE,16.1,-,N/A,Rain,Light Rain,60,2013-02-21 19:35:00
1:55 PM,32.0,24.8,75,30.08,10.0,ENE,13.8,-,N/A,Rain,Light Rain,60,2013-02-21 19:55:00
2:15 PM,32.0,26.6,80,30.10,5.0,NE,9.2,-,0.01,Rain,Rain,50,2013-02-21 20:15:00
2:35 PM,32.0,26.6,80,30.12,7.0,NNE,9.2,-,0.02,,Overcast,30,2013-02-21 20:35:00
2:55 PM,32.0,26.6,80,30.13,5.0,NNE,10.4,-,0.02,Snow,Light Snow,30,2013-02-21 20:55:00
3:15 PM,32.0,26.6,80,30.18,7.0,North,4.6,-,0.01,Snow,Light Snow,360,2013-02-21 21:15:00
3:35 PM,32.0,28.4,87,30.17,1.2,NE,6.9,-,0.01,Snow,Light Snow,40,2013-02-21 21:35:00
3:55 PM,32.0,30.2,93,30.15,0.8,NE,8.1,-,0.02,Snow,Light Snow,40,2013-02-21 21:55:00
4:15 PM,32.0,30.2,93,30.14,1.8,NE,12.7,-,N/A,Snow,Light Snow,40,2013-02-21 22:15:00
4:35 PM,32.0,30.2,93,30.12,1.2,ENE,15.0,-,0.01,Snow,Light Snow,60,2013-02-21 22:35:00
4:55 PM,32.0,30.2,93,30.07,1.0,ENE,20.7,25.3,0.03,Snow,Light Snow,60,2013-02-21 22:55:00
5:15 PM,32.0,30.2,93,30.05,5.0,ENE,21.9,25.3,N/A,Snow,Light Snow,70,2013-02-21 23:15:00
5:35 PM,32.0,32.0,100,30.02,5.0,East,20.7,-,0.01,,Overcast,80,2013-02-21 23:35:00
5:55 PM,32.0,32.0,100,29.99,5.0,East,21.9,26.5,0.02,,Overcast,80,2013-02-21 23:55:00
6:15 PM,32.0,32.0,100,29.98,7.0,East,17.3,-,0.01,,Overcast,90,2013-02-22 00:15:00
6:35 PM,32.0,32.0,100,29.95,10.0,East,15.0,20.7,0.01,,Overcast,80,2013-02-22 00:35:00
6:55 PM,32.0,32.0,100,29.92,10.0,East,17.3,-,0.01,,Overcast,90,2013-02-22 00:55:00
7:15 PM,32.0,32.0,100,29.94,10.0,East,15.0,-,N/A,,Overcast,90,2013-02-22 01:15:00
7:35 PM,32.0,32.0,100,29.93,10.0,East,16.1,-,N/A,,Overcast,90,2013-02-22 01:35:00
7:55 PM,33.8,32.0,93,29.92,10.0,East,13.8,-,N/A,,Overcast,90,2013-02-22 01:55:00
8:15 PM,33.8,32.0,93,29.93,7.0,East,10.4,-,0.01,Rain,Rain,90,2013-02-22 02:15:00
8:35 PM,33.8,32.0,93,29.96,5.0,ESE,6.9,-,0.03,Rain,Light Rain,120,2013-02-22 02:35:00
8:55 PM,33.8,32.0,93,29.96,5.0,ESE,9.2,-,0.05,Rain,Rain,120,2013-02-22 02:55:00
9:15 PM,33.8,32.0,93,29.95,4.0,ESE,8.1,-,0.01,Rain,Light Rain,110,2013-02-22 03:15:00
9:35 PM,33.8,32.0,93,29.93,7.0,ESE,9.2,-,0.01,Rain,Light Rain,110,2013-02-22 03:35:00
9:55 PM,33.8,32.0,93,29.92,7.0,ESE,8.1,-,0.01,,Drizzle,110,2013-02-22 03:55:00
10:15 PM,33.8,32.0,93,29.89,7.0,ESE,9.2,-,0.01,Rain,Light Rain,110,2013-02-22 04:15:00
10:35 PM,33.8,32.0,93,29.88,10.0,ESE,9.2,-,0.01,,Overcast,110,2013-02-22 04:35:00
10:55 PM,33.8,32.0,93,29.88,7.0,ESE,8.1,-,0.01,Rain,Light Rain,110,2013-02-22 04:55:00
11:15 PM,33.8,32.0,93,29.86,10.0,ESE,6.9,-,N/A,,Overcast,110,2013-02-22 05:15:00
11:35 PM,33.8,32.0,93,29.85,10.0,ESE,6.9,-,N/A,,Overcast,110,2013-02-22 05:35:00
11:55 PM,33.8,32.0,93,29.86,7.0,ESE,3.5,-,N/A,,Overcast,110,2013-02-22 05:55:00